Regional Weather Roundup
Issued by NWS Upton, NY

Current Version | Previous Version | Graphics & Text | Print | Product List | Glossary Off
Versions: 1 2 3 4 5 6 7 8 9 10 11 12 13 14 15 16 17 18 19 20 21 22 23 24 25 26 27 28 29 30 31 32 33 34 35 36 37 38 39 40 41 42 43 44 45 46 47 48 49 50

000
ASUS41 KOKX 251905
RWROKX

REGIONAL WEATHER ROUNDUP
NATIONAL WEATHER SERVICE NEW YORK NY
200 PM EST SUN JAN 25 2015

NOTE: "FAIR" INDICATES FEW OR NO CLOUDS BELOW 12,000 FEET WITH NO
SIGNIFICANT WEATHER AND/OR OBSTRUCTIONS TO VISIBILITY.

NYZ071-072-176-178-NJZ106-104-252000-
NEW YORK CITY METRO AREA


CITY           SKY/WX    TMP DP  RH WIND       PRES   REMARKS
CENTRAL PARK   SUNNY     42  13  30 W8        29.79S
LAGUARDIA APRT CLOUDY    41  16  36 NW16      29.77F
KENNEDY INTL   PTSUNNY   45  12  26 NW17G28   29.78S
NEWARK/LIBERTY PTSUNNY   42  17  36 W17       29.78S
BRNX BOT. GARD   N/A    N/A N/A N/A NW1       29.78F
TETERBORO      SUNNY     41  15  35 NW12G22   29.77S
$$

NYZ177-179-078>081-252000-
LONG ISLAND NEW YORK

CITY           SKY/WX    TMP DP  RH WIND       PRES   REMARKS
FARMINGDALE    SUNNY     42  15  33 NW10G25   29.77R
ISLIP          PTSUNNY   41  15  35 NW17G33   29.74R
SHIRLEY        SUNNY     41  19  41 W20G25    29.76R
WESTHAMPTON    SUNNY     43  16  33 W21G29    29.76R
MONTAUK POINT    N/A     42  24  49 W14G23    29.73R
$$

NYZ052-065-067-252000-
HUDSON VALLEY

CITY           SKY/WX    TMP DP  RH WIND       PRES   REMARKS
WHITE PLAINS   SUNNY     36  10  34 NW18G26   29.76R WCI  26
NEWBURGH       MOSUNNY   34  16  47 W18       29.78R WCI  23
MONTGOMERY     SUNNY     35   9  33 W14G22    29.78R WCI  26
POUGHKEEPSIE   SUNNY     37  12  35 W14       29.78R WCI  28
ALBANY         MOSUNNY   26   5  40 W23G29    29.82R WCI  11
$$

NJZ001-105-106-008-010-013-015-019>022-104-252000-
NEW JERSEY

CITY           SKY/WX    TMP DP  RH WIND       PRES   REMARKS
NEWARK/LIBERTY PTSUNNY   42  17  36 W17       29.78S
TETERBORO      SUNNY     41  15  35 NW12G22   29.77S
CALDWELL       SUNNY     41  11  29 NW14G22   29.78F
MORRISTOWN     MOSUNNY   41  12  30 NW14G29   29.78F
SOMERVILLE     PTSUNNY   42  22  44 NW8G23    29.76F
SUSSEX         SUNNY     37   8  30 NW10G17   29.79S WCI  30
ANDOVER          N/A     38  11  32 N8        29.78S WCI  32
TRENTON        PTSUNNY   42  28  57 NW9       29.77F
MILLVILLE      PTSUNNY   49  31  49 NW8       29.81S
ATLANTIC CITY  PTSUNNY   48  30  49 W12       29.80S
WRIGHTSTOWN    MOSUNNY   44  32  61 NW10      29.77S
TOMS RIVER     MOSUNNY   45  28  53 NW10G23   29.79F
BELMAR         MOSUNNY   43  28  56 W15G24    29.78R
$$

PAZ047>061-062-071-252000-
EASTERN PENNSYLVANIA

CITY           SKY/WX    TMP DP  RH WIND       PRES   REMARKS
PHILADELPHIA   PTSUNNY   46  29  51 W17       29.81S
ALLENTOWN      CLOUDY    38  25  59 NW7       29.79F WCI  33
SCRANTON       MOSUNNY   33  10  38 N10       29.79F WCI  25
$$

CTZ002-004>006-009-010-012-RIZ004-006-007-MAZ004-011-015-252000-
SOUTHERN NEW ENGLAND
 IN CT

CITY           SKY/WX    TMP DP  RH WIND       PRES   REMARKS
BRADLEY INTL   MOSUNNY   33   9  36 W21G31    29.74R WCI  21
HARTFORD       SUNNY     34  12  40 W12G24    29.76R WCI  25
DANBURY        MOSUNNY   36  10  34 NW12      29.76R WCI  28
WTRBRY/OXFORD  NOT AVBL
BRIDGEPORT     MOSUNNY   39  19  44 W15G23    29.76R WCI  31
MERIDEN        MOSUNNY   37  15  40 NW14G22   29.75R WCI  28
NEW HAVEN      MOSUNNY   39  17  41 W10G21    29.75R WCI  32
CHESTER        FAIR      37  16  41 NW9G18    29.73R WCI  31
GROTON         MOSUNNY   40  18  41 NW17G26   29.72R WCI  31
WILLIMANTIC    SUNNY     35  11  36 NW15G26   29.73R WCI  25

 IN RI

CITY           SKY/WX    TMP DP  RH WIND       PRES   REMARKS
PROVIDENCE     MOSUNNY   36  17  46 W18G29    29.69R WCI  26
BLOCK ISLAND   MOSUNNY   41  19  42 W15G28    29.70R
WESTERLY       SUNNY     39  16  39 NW17G24   29.71R WCI  30

 IN MA

CITY           SKY/WX    TMP DP  RH WIND       PRES   REMARKS
BOSTON         MOSUNNY   37  17  44 NW14      29.66R WCI  28
WORCESTER      SUNNY     30   8  39 W20G30    29.64R WCI  17
WESTFIELD      SUNNY     32   8  36 NW17G29   29.74R WCI  21
PROVINCETOWN   NOT AVBL
NANTUCKET      SUNNY     42  23  46 W24G36    29.64R
$$

ANZ330-335-338-340-345-350-353-355-252000-
COASTAL MARINE OBSERVATIONS


STATION/POSITION TIME  SKY/WX   TEMP    WIND        PRES    VSBY  WAVE
                                AIR SEA DIR/SP/G                  HT/PER
                 (UTC)          (F)     (DEG/KT/KT) (MB)    (MI)  (FT/S)
NY HARB ENTRANCE 1900            43 42  300/ 17/ 21 1007.5          4/12
4S FIRE IS       1900               39                N/A           6/13
20S FIRE ISLAND  1800               42              1008.1          6/ 6
23SW MTP         1900                                 N/A           8/ 7
HUDSON CANYON    NOT AVBL
EXECUTION ROCKS  1900            39 35  310/ 14/ 19   N/A
WESTERN LI SOUND 1900            39     300/ 17/ 21   N/A           2/ 3
CENTRAL LI SOUND 1800            38 37  290/ 16/ 19   N/A           3/ 5
EASTERN LI SOUND NOT AVBL
ROBBINS REEF     1900            42     310/ 13/ 16 1007.0
$$


>>>>>>>>>>>>>>>>>>>>>>>>>>>> KEY <<<<<<<<<<<<<<<<<<<<<<<<<<<
>                                                          <
>     SKY/WX - SKY CONDITION/PRESENT WEATHER               <
>     TMP    - TEMPERATURE IN FAHRENHEIT                   <
>     DP     - DEWPOINT IN FAHRENHEIT                      <
>     RH     - RELATIVE HUMIDITY IN PERCENT                <
>     WIND   - DIRECTION AND SPEED IN MPH                  <
>     PRES   - MEAN SEA LEVEL PRESSURE IN INCHES OF HG     <
>     WCI    - WIND CHILL INDEX                            <
>     VSB    - VISIBILITY IN MILES                         <
>     HX     - HEAT INDEX                                  <
>     TC     - TEMPERATURE IN CELSIUS                      <
>     VRB    - VARIABLE WIND DIRECTION                     <
>                                                          <
>>>>>>>>>>>>>>>>>>>>>>>>>>>> KEY <<<<<<<<<<<<<<<<<<<<<<<<<<<





USA.gov is the U.S. government's official web portal to all federal, state and local government web resources and services.